CDT,Max TemperatureF,Mean TemperatureF,Min TemperatureF,Max Dew PointF,MeanDew PointF,Min DewpointF,Max Humidity, Mean Humidity, Min Humidity, Max Sea Level PressureIn, Mean Sea Level PressureIn, Min Sea Level PressureIn, Max VisibilityMiles, Mean VisibilityMiles, Min VisibilityMiles, Max Wind SpeedMPH, Mean Wind SpeedMPH, Max Gust SpeedMPH,PrecipitationIn, CloudCover, Events, WindDirDegrees
2013-9-1,73,68,61,64,59,53,81,70,59,29.98,29.85,29.74,10,10,10,15,9,22,0.00,5,,320
2013-9-2,66,60,54,52,51,50,88,72,59,30.10,30.05,29.98,10,10,7,9,6,,0.00,4,,339
2013-9-3,79,63,48,57,52,46,100,77,43,30.11,30.06,30.01,10,7,0,6,3,,0.01,1,Fog,229
2013-9-4,88,73,59,65,60,56,93,67,43,30.14,30.07,30.01,10,10,8,10,3,,0.00,0,,328
2013-9-5,84,74,64,66,60,53,81,63,46,30.21,30.15,30.09,10,10,8,10,6,17,0.00,1,,98
2013-9-6,91,81,71,68,66,62,90,66,38,30.09,29.98,29.86,10,9,2,20,8,24,0.14,2,Rain,178
2013-9-7,93,81,69,70,66,61,87,62,39,29.99,29.89,29.84,10,9,6,13,6,21,0.00,0,,57
2013-9-8,79,72,66,64,61,57,79,70,56,30.03,29.96,29.87,10,10,7,14,10,21,0.00,6,,92
2013-9-9,95,82,69,71,68,64,93,72,43,29.87,29.74,29.61,10,7,2,17,9,22,0.00,5,Rain-Thunderstorm,159
2013-9-10,82,74,68,67,64,61,90,71,52,29.98,29.89,29.76,10,10,4,13,7,,0.01,2,Rain,251
2013-9-11,86,73,62,61,56,48,93,57,28,30.05,30.01,29.98,10,9,2,15,4,21,0.00,0,,273
2013-9-12,75,66,57,55,49,44,78,56,32,30.23,30.16,30.05,10,10,10,15,10,21,0.00,1,,345
2013-9-13,70,58,46,47,44,41,90,59,35,30.29,30.20,30.09,10,10,9,6,3,,0.00,0,,95
2013-9-14,73,60,48,56,48,43,94,69,35,30.09,29.99,29.89,10,8,3,15,7,24,0.49,3,Rain,176
2013-9-15,66,60,51,56,54,44,94,80,59,30.32,30.06,29.87,10,8,2,14,8,23,0.38,6,Rain,32
2013-9-16,68,56,45,44,42,40,86,63,37,30.41,30.34,30.26,10,10,10,10,6,,0.00,0,,99
2013-9-17,69,58,48,58,51,43,94,79,55,30.26,30.08,29.94,10,7,2,20,11,28,0.03,6,Rain,146
2013-9-18,80,68,60,68,64,59,100,88,73,29.93,29.80,29.68,8,4,1,15,7,21,0.07,6,Rain,148
2013-9-19,79,71,64,68,65,53,93,79,61,29.81,29.71,29.65,10,9,1,21,7,32,0.22,3,Rain-Thunderstorm,231
2013-9-20,66,58,52,54,51,46,94,77,54,29.94,29.85,29.80,10,10,4,18,10,28,0.01,6,Rain,283
2013-9-21,64,56,48,49,46,44,90,70,50,30.00,29.96,29.91,10,10,5,9,5,,0.00,1,,331
2013-9-22,77,62,48,54,49,43,89,67,44,29.97,29.91,29.84,10,10,8,20,9,26,0.00,0,,125
2013-9-23,75,64,54,52,50,48,80,62,41,29.94,29.90,29.86,10,10,9,21,13,26,0.00,0,,143
2013-9-24,77,65,53,54,50,47,83,64,39,29.96,29.93,29.90,10,10,9,12,7,,0.00,0,,115
2013-9-25,75,64,52,53,51,49,97,67,40,29.97,29.92,29.86,10,9,5,17,4,24,0.00,0,,121
2013-9-26,82,70,57,60,55,50,81,63,42,29.92,29.87,29.82,10,10,10,23,13,29,0.00,0,,140
2013-9-27,86,76,66,63,60,59,78,62,43,29.90,29.85,29.79,10,10,9,25,12,33,0.00,1,,142
2013-9-28,71,60,48,63,54,45,94,81,62,29.95,29.76,29.62,10,8,2,20,13,32,0.16,6,Rain,224
2013-9-29,78,62,45,47,44,41,90,59,28,29.97,29.89,29.79,10,10,10,20,7,26,0.00,0,,187
2013-9-30,81,70,60,52,49,45,60,49,34,29.77,29.66,29.58,10,10,10,22,13,29,0.00,0,,188